Location: Finnegan
(51.1333°N, 112.0833°W)
Time: 21:01:01
(UTC+00:00)

Envisat - Pass Details

Date: 06 December 2021
Orbit: 764 x 766 km, 98.2° (Epoch: 26 January)

Event Time Altitude Azimuth Distance (km) Brightness Sun altitude
Rises 10:57:49 0° 30° (NNE) 3,246 6.7 -39.4°
Reaches altitude 10° 11:01:33 10° 58° (ENE) 2,312 6.1 -38.8°
Maximum altitude 11:03:50 13° 85° (E) 2,108 5.9 -38.4°
Drops below altitude 10° 11:06:07 10° 112° (ESE) 2,304 6.0 -38.1°
Sets 11:09:48 0° 139° (SE) 3,223 6.6 -37.5°
